Location: Creslo
(40.3331°N, 78.7592°W)
Time: 20:22:57
(UTC+00:00)

ISS - Visible Passes

Search period start: 29 November 2020 00:00
Search period end: 09 December 2020 00:00
Orbit: 418 x 420 km, 51.6° (Epoch: 30 November)

Date Brightness Start Highest point End Pass type
(mag) Time Alt. Az. Time Alt. Az. Time Alt. Az.
29 Nov -1.3 22:39:26 10° NW 22:41:01 13° N 22:42:36 10° NNE visible
30 Nov -1.3 23:29:21 10° NNW 23:30:25 13° N 23:30:25 13° N visible
01 Dec -1.4 22:41:48 10° NNW 22:43:17 12° N 22:44:47 10° NNE visible
02 Dec -1.6 23:30:46 10° NNW 23:32:12 17° N 23:32:12 17° N visible
03 Dec -1.8 22:43:21 10° NNW 22:45:29 15° NNE 22:46:42 13° NE visible
04 Dec -0.6 00:19:33 10° NW 00:19:40 11° NW 00:19:40 11° NW visible
04 Dec -2.4 23:32:05 10° NW 23:34:16 29° N 23:34:16 29° N visible
05 Dec -2.5 22:44:38 10° NNW 22:47:29 25° NNE 22:49:01 18° ENE visible
06 Dec -0.9 00:21:11 10° WNW 00:22:00 16° WNW 00:22:00 16° WNW visible
06 Dec -3.9 23:33:30 10° NW 23:36:52 89° WSW 23:36:57 86° SE visible
07 Dec -3.6 22:45:56 10° NW 22:49:15 54° NNE 22:52:10 13° ESE visible
08 Dec -0.8 00:23:31 10° W 00:25:12 16° WSW 00:25:12 16° WSW visible
08 Dec -1.8 23:35:20 10° WNW 23:38:17 28° SW 23:40:50 12° SSE visible
